Regional Weather Roundup
Issued by NWS

Home | Current Version | Previous Version | Text Only | Print | Product List | Glossary Off
Versions: 1 2 3 4 5 6 7 8 9 10 11 12 13 14 15 16 17 18 19 20 21 22 23 24 25 26 27 28 29 30 31 32 33 34 35 36 37 38 39 40 41 42 43 44 45 46 47 48 49 50

000
ASUS43 KLSX 050359
RWRMO

WEATHER SUMMARY FOR MISSOURI
NATIONAL WEATHER SERVICE SPRINGFIELD MO
1100 PM CDT MON MAY 04 2015

NOTE: "FAIR" INDICATES FEW OR NO CLOUDS BELOW 12,000 FEET WITH NO
       SIGNIFICANT WEATHER AND/OR OBSTRUCTIONS TO VISIBILITY.
       CURRENT SKY AND/OR WEATHER CONDITIONS ARE NOT AVAILABLE FOR
       CHILLICOTHE AND FARMINGTON.

MOZ001>031-035>038-043-044-053-054-050500-
...NORTHERN AND WESTERN MISSOURI...

CITY           SKY/WX    TMP DP  RH WIND       PRES   REMARKS
KANSAS CTY INT LGT RAIN  62  61  96 CALM      30.11S
KANSAS C DTWN  LGT RAIN  64  60  87 N5        30.10R FOG
LEE`S SUMMIT   CLOUDY    64  60  87 NE5       30.11R
ST JOSEPH      RAIN      62  61  96 S12       30.11R FOG
CHILLICOTHE      N/A     64  61  90 NW5       30.08F
KIRKSVILLE     CLOUDY    69  63  81 NW14G21   30.10R

$$
MOZ066>068-077>081-088>096-101>105-050500-
...SOUTHWEST MISSOURI...

CITY           SKY/WX    TMP DP  RH WIND       PRES   REMARKS
SPRINGFIELD    CLEAR     66  54  65 S7        30.13R
JOPLIN         PTCLDY    65  58  78 SE5       30.11R

$$
MOZ032>034-039>042-045>050-055>058-069>072-050500-
...CENTRAL MISSOURI...

CITY           SKY/WX    TMP DP  RH WIND       PRES   REMARKS
COLUMBIA       CLOUDY    69  59  70 S8        30.09R
JEFFERSON CITY CLOUDY    70  57  63 SE6       30.08R
ROLLA          MOCLDY    69  55  60 S8        30.12R
SEDALIA        CLOUDY    73  60  63 SW6       30.10R
OSAGE BEACH    MOCLDY    70  54  56 CALM      30.12R

$$
MOZ051-052-059>065-050500-
...EAST CENTRAL MISSOURI...

CITY           SKY/WX    TMP DP  RH WIND       PRES   REMARKS
ST LOUIS INTL  MOCLDY    77  53  43 S12       30.11R
SPIRIT OF STL  PTCLDY    73  54  51 S8        30.09S
ST CHARLES     MOCLDY    74  55  51 S12       30.08S

$$
MOZ072>076-082>087-097>100-106>115-050500-
...SOUTH CENTRAL AND SOUTHEAST MISSOURI...

CITY           SKY/WX    TMP DP  RH WIND       PRES   REMARKS
CAPE GIRARDEAU CLEAR     69  53  56 S8        30.15R
FARMINGTON     CLEAR     66  54  63 S25       30.20R
POPLAR BLUFF   CLEAR     67  51  56 S3        30.14R
WEST PLAINS    CLEAR     68  54  60 S6        30.17R

$$



USA.gov is the U.S. government's official web portal to all federal, state and local government web resources and services.